Weather History for KHOT - October, 2012

Change the Weather History Date:

Friday, October 12, 2012

  Actual Average (WUND) Record (WUND)
Temperature  
Mean Temperature 71 °F -  
Max Temperature 79 °F - - (-1)
Min Temperature 64 °F - - (-1)
Cooling Degree Days 6    
Growing Degree Days 21 (Base 50)    
Moisture  
Dew Point 64 °F    
Average Humidity 90    
Maximum Humidity 100    
Minimum Humidity 57    
Precipitation  
Precipitation 0.37 in - - ()
Sea Level Pressure  
Sea Level Pressure 30.20 in    
Wind  
Wind Speed 4 mph (East)    
Max Wind Speed 12 mph    
Max Gust Speed -    
Visibility 5 miles    
Events Rain , Thunderstorm    
Averages and records for this station are not official NWS values.
T = Trace of Precipitation, MM = Missing Value Source: NWS Daily Summary

Daily Weather History Graph

Daily Weather History Graph

Search for Another Location

Airport or City:

Trip Planner

Search our weather history database for the weather conditions in past years. The results will help you decide how hot, cold, wet, or windy it might be!

Date:

Astronomy

Oct. 12, 2012 Rise Set
Actual Time 7:15 AM CDT 6:41 PM CDT
Civil Twilight 6:50 AM CDT 7:06 PM CDT
Nautical Twilight 6:21 AM CDT 7:35 PM CDT
Astronomical Twilight 5:52 AM CDT 8:04 PM CDT
Moon 4:06 AM CDT (10/12) 4:45 PM CDT (10/12)
Length of Visible Light 12h 15m
Length of Day
11h 25m
Waning Crescent, 10% of the Moon is Illuminated
Oct 12
Waning Crescent
Oct 15
New
Oct 21
First Quarter
Oct 29
Full
Nov 6
Last Quarter

Hourly Weather History & Observations

Time (CDT) Temp. Dew Point Humidity Pressure Visibility Wind Dir Wind Speed Gust Speed Precip Events Conditions
12:53 AM 64.9 °F 63.0 °F 93% 30.16 in 6.0 mi Calm Calm - N/A   Clear
1:53 AM 64.0 °F 62.1 °F 93% 30.16 in 6.0 mi Calm Calm - N/A   Mostly Cloudy
2:53 AM 64.4 °F 62.6 °F 94% 30.18 in 6.0 mi Calm Calm - N/A   Overcast
3:53 AM 66.9 °F 64.0 °F 90% 30.16 in 7.0 mi Calm Calm - N/A   Overcast
4:53 AM 66.9 °F 64.0 °F 90% 30.15 in 8.0 mi Calm Calm - N/A   Overcast
5:53 AM 68.0 °F 64.9 °F 90% 30.17 in 8.0 mi East 3.5 mph - N/A   Overcast
6:53 AM 68.0 °F 64.0 °F 87% 30.17 in 9.0 mi Variable 4.6 mph - N/A   Clear
7:53 AM 66.9 °F 64.0 °F 90% 30.20 in 6.0 mi East 4.6 mph - N/A   Mostly Cloudy
9:53 AM 75.0 °F 66.0 °F 73% 30.22 in 10.0 mi South 3.5 mph - N/A   Partly Cloudy
10:53 AM 78.8 °F 62.6 °F 57% 30.25 in 10.0 mi SW 4.6 mph - N/A   Mostly Cloudy
11:53 AM 77.0 °F 63.0 °F 62% 30.23 in 10.0 mi Calm Calm - N/A   Overcast
12:43 PM 69.8 °F 64.4 °F 83% 30.25 in 1.8 mi ENE 10.4 mph - 0.09 in Rain Heavy Rain
12:53 PM 68.0 °F 64.9 °F 90% 30.24 in 2.0 mi ENE 10.4 mph - 0.13 in Rain Heavy Rain
1:05 PM 68.0 °F 64.4 °F 88% 30.25 in 6.0 mi ENE 10.4 mph - 0.00 in Rain Light Rain
1:53 PM 68.0 °F 64.9 °F 90% 30.22 in 10.0 mi ENE 11.5 mph - 0.04 in   Overcast
2:53 PM 69.8 °F 66.2 °F 88% 30.22 in 10.0 mi ENE 6.9 mph - N/A   Overcast
3:53 PM 70.0 °F 66.0 °F 87% 30.20 in 9.0 mi East 6.9 mph - 0.00 in Rain Light Rain
4:53 PM 68.0 °F 64.4 °F 88% 30.23 in 8.0 mi ENE 10.4 mph - N/A   Overcast
4:59 PM 68.0 °F 64.4 °F 88% 30.23 in 8.0 mi ENE 11.5 mph - N/A Thunderstorm Overcast
5:09 PM 68.0 °F 64.4 °F 88% 30.23 in 6.0 mi NE 10.4 mph - 0.00 in Rain , Thunderstorm Light Rain
5:20 PM 66.2 °F 64.4 °F 94% 30.23 in 7.0 mi ENE 9.2 mph - 0.00 in Rain , Thunderstorm Light Rain
5:27 PM 66.2 °F 64.4 °F 94% 30.23 in 7.0 mi ENE 6.9 mph - N/A   Overcast
5:53 PM 66.9 °F 64.0 °F 90% 30.22 in 7.0 mi Calm Calm - 0.00 in   Overcast
6:11 PM 66.2 °F 64.4 °F 94% 30.24 in 1.8 mi East 4.6 mph - 0.06 in Rain Heavy Rain
6:36 PM 66.2 °F 64.4 °F 94% 30.22 in 2.0 mi SSE 4.6 mph - N/A Rain Rain
6:49 PM 66.2 °F 64.4 °F 94% 30.20 in 4.0 mi SE 8.1 mph - 0.17 in Rain Rain
6:53 PM 66.0 °F 64.0 °F 93% 30.17 in 3.0 mi SE 9.2 mph - 0.18 in Rain Rain
7:44 PM 66.2 °F 64.4 °F 94% 30.17 in 1.8 mi Calm Calm - 0.02 in   Partly Cloudy
7:53 PM 66.0 °F 64.0 °F 93% 30.17 in 4.0 mi Calm Calm - 0.02 in   Clear
8:16 PM 66.2 °F 64.4 °F 94% 30.17 in 2.5 mi Calm Calm - N/A   Clear
8:27 PM 64.4 °F 62.6 °F 94% 30.18 in 1.2 mi Calm Calm - N/A   Clear
8:43 PM 64.4 °F 64.4 °F 100% 30.17 in 3.0 mi Calm Calm - N/A   Clear
8:53 PM 64.4 °F 62.6 °F 94% 30.17 in 3.0 mi Calm Calm - N/A   Clear
8:56 PM 64.4 °F 62.6 °F 94% 30.17 in 1.2 mi East 3.5 mph - N/A   Partly Cloudy
8:58 PM 64.4 °F 62.6 °F 94% 30.17 in 0.8 mi East 3.5 mph - N/A   Mist
9:08 PM 64.4 °F 62.6 °F 94% 30.17 in 2.0 mi East 4.6 mph - N/A   Clear
9:17 PM 64.4 °F 62.6 °F 94% 30.17 in 3.0 mi East 4.6 mph - N/A   Clear
9:53 PM 64.9 °F 63.0 °F 93% 30.17 in 4.0 mi East 4.6 mph - N/A   Clear
10:53 PM 64.0 °F 63.0 °F 96% 30.16 in 3.0 mi East 4.6 mph - N/A   Clear
11:40 PM 64.4 °F 62.6 °F 94% 30.18 in 2.5 mi ESE 3.5 mph - N/A   Clear
11:53 PM 64.0 °F 63.0 °F 96% 30.16 in 2.5 mi ESE 3.5 mph - N/A   Clear